{"data":{"norad_id":61634,"epoch":"2026-05-25T04:45:50.450112Z","epoch_age_seconds":68070,"freshness":"FRESH","line1":"1 61634U 24191P   26145.19850058  .00000331  00000+0  21532-4 0  9994","line2":"2 61634  43.0010  86.2150 0000728 233.0403 127.0382 15.27578583 89195","mean_motion":15.27578583,"eccentricity":7.28e-5,"inclination_deg":43.001,"raan_deg":86.215,"arg_perigee_deg":233.0403,"mean_anomaly_deg":127.0382,"bstar":2.1532e-5,"rev_number":8919,"period_min":94.266836156605,"perigee_km":482.55384439401,"apogee_km":483.55283370738,"semimajor_km":6861.1903390507,"source":"CELESTRAK","updated_at":"2026-05-25T13:38:19.409126Z"}}